Tracking 35048 objects as of 19-Aug-2026
HD Live streaming from Space Station
objects crossing your sky now

STARLINK-3513

Track STARLINK-3513 now!
10-day predictions
STARLINK-3513 is classified as:


NORAD ID: 51756
Int'l Code: 2022-016AU
Launch date: February 21, 2022
Source: United States (US)
Launch site: AIR FORCE EASTERN TEST RANGE (AFETR)
Your satellite tracking list
Your tracking list is empty




NASA's NSSDC Master Catalog

Two Line Element Set (TLE):
1 51756U 22016AU  26231.14739007  .00002267  00000-0  80245-4 0  9990
2 51756  53.1611 290.9058 0001331  63.9473 296.1666 15.33547234248351
Source of the keplerian elements: AFSPC